This is the latest recevied weather packets stored in our database for station/object LZ0VRC-10. If no packets are shown the sender has not sent any weather packets the latest 10 day(s).
| Time | Temp. | Humidity | Pressure | Rain* | Wind** | Luminosity | Snow |
|---|---|---|---|---|---|---|---|
| 1777854008 | 3.89° C | 77% | 1020.5 hPa | - | - | - | - |
| 1777854004 | 3.89° C | 77% | 1020.5 hPa | - | - | - | - |
| 1777853108 | 3.89° C | 76% | 1020.4 hPa | - | - | - | - |
| 1777853104 | 3.89° C | 76% | 1020.4 hPa | - | - | - | - |
| 1777852204 | 4.44° C | 76% | 1020.4 hPa | - | - | - | - |
| 1777851304 | 4.44° C | 75% | 1020.5 hPa | - | - | - | - |
| 1777850404 | 4.44° C | 74% | 1020.8 hPa | - | - | - | - |
| 1777849504 | 4.44° C | 73% | 1020.8 hPa | - | - | - | - |
| 1777848604 | 5° C | 73% | 1020.8 hPa | - | - | - | - |
| 1777847704 | 5° C | 70% | 1020.9 hPa | - | - | - | - |
| 1777846804 | 6.11° C | 61% | 1021 hPa | - | - | - | - |
| 1777845909 | 6.11° C | 59% | 1021 hPa | - | - | - | - |
| 1777845904 | 6.11° C | 59% | 1021 hPa | - | - | - | - |
| 1777845009 | 6.11° C | 59% | 1021.1 hPa | - | - | - | - |
| 1777845004 | 6.11° C | 59% | 1021.1 hPa | - | - | - | - |
| 1777844109 | 6.11° C | 59% | 1021.1 hPa | - | - | - | - |
| 1777844104 | 6.11° C | 59% | 1021.1 hPa | - | - | - | - |
| 1777843204 | 6.11° C | 60% | 1021 hPa | - | - | - | - |
| 1777842309 | 6.67° C | 59% | 1021 hPa | - | - | - | - |
| 1777842304 | 6.67° C | 59% | 1021 hPa | - | - | - | - |
| 1777841409 | 6.67° C | 56% | 1021 hPa | - | - | - | - |
| 1777841404 | 6.67° C | 56% | 1021 hPa | - | - | - | - |
| 1777840504 | 6.67° C | 58% | 1021.2 hPa | - | - | - | - |
| 1777839609 | 6.67° C | 58% | 1021.4 hPa | - | - | - | - |
| 1777839604 | 6.67° C | 58% | 1021.4 hPa | - | - | - | - |
* Rain since midnight (hover to see other rain measurements)
** Current wind speed in m/s (hover to see current wind gust speed)